VE3CGR-6 Weather Reports


time (UTC)temp
C
wind
direction
speed
KPH
gust
KPH
rain 1hr
cm
rain 24hr
cm
rain mn
cm
humidity
%
barometer
mb
20260504001516 10 0.0 0.0 0.00 0.05 0.05 78 1007.9
20260504000518 10 0.0 0.0 0.00 0.05 0.05 78 1007.8
20260503235513 10 0.0 0.0 0.00 0.05 0.05 78 1007.8
20260503234518 10 0.0 0.0 0.00 0.05 0.05 78 1007.8
20260503233518 10 270 1.6 11.3 0.00 0.05 0.05 78 1007.8
20260503232518 10 270 4.8 27.4 0.00 0.05 0.05 78 1007.8
20260503231518 10 270 3.2 19.3 0.00 0.05 0.05 79 1007.8
20260503230518 10 270 3.2 11.3 0.00 0.05 0.05 80 1007.6
20260503225518 9 270 1.6 17.7 0.00 0.05 0.05 79 1007.6
20260503224518 9 270 3.2 19.3 0.00 0.05 0.05 80 1007.7
20260503223518 9 248 3.2 14.5 0.03 0.05 0.05 82 1007.8
20260503222518 9 293 1.6 17.7 0.03 0.05 0.05 83 1008.0
20260503221518 8 0.0 12.9 0.03 0.05 0.05 84 1007.8
20260503220518 8 0.0 6.4 0.03 0.05 0.05 83 1007.8
20260503215518 8 315 1.6 14.5 0.05 0.05 0.05 82 1008.0
20260503214518 8 270 1.6 12.9 0.05 0.05 0.05 82 1008.2
20260503213518 9 293 1.6 20.9 0.03 0.03 0.03 81 1008.3
20260503212518 9 293 6.4 20.9 0.03 0.03 0.03 78 1008.3
20260503211518 10 293 8.0 33.8 0.03 0.03 0.03 77 1008.3
20260503210518 10 315 8.0 33.8 0.03 0.03 0.03 74 1008.3
20260503205518 11 293 4.8 25.7 0.00 0.00 0.00 69 1008.1
20260503204518 11 293 8.0 24.1 0.00 0.00 0.00 62 1008.1
20260503203516 12 293 4.8 30.6 0.00 0.00 0.00 60 1008.3
20260503202518 12 293 1.6 12.9 0.00 0.00 0.00 52 1008.1
20260503201518 12 203 1.6 8.0 0.00 0.00 0.00 48 1007.9
20260503200518 12 180 1.6 9.7 0.00 0.00 0.00 47 1007.9
20260503195518 12 180 9.7 19.3 0.00 0.00 0.00 48 1008.0
20260503194518 12 180 1.6 11.3 0.00 0.00 0.00 44 1008.1
20260503193518 12 180 4.8 22.5 0.00 0.00 0.00 42 1008.0
20260503192518 12 203 3.2 14.5 0.00 0.00 0.00 43 1008.1
20260503191518 12 203 1.6 12.9 0.00 0.00 0.00 43 1008.2
20260503190518 12 270 1.6 16.1 0.00 0.00 0.00 46 1008.5
20260503185518 12 225 1.6 14.5 0.00 0.00 0.00 42 1008.8
20260503184518 12 180 1.6 9.7 0.00 0.00 0.00 42 1009.0
20260503183518 12 203 1.6 12.9 0.00 0.00 0.00 41 1009.1
20260503182518 12 203 3.2 16.1 0.00 0.00 0.00 41 1009.3
20260503181518 12 180 1.6 12.9 0.00 0.00 0.00 42 1009.4
20260503180518 12 225 3.2 14.5 0.00 0.00 0.00 42 1009.7
20260503175518 12 158 3.2 20.9 0.00 0.00 0.00 42 1009.8
20260503174518 12 203 6.4 27.4 0.00 0.00 0.00 39 1009.8
20260503173517 12 225 1.6 11.3 0.00 0.00 0.00 39 1010.0
20260503172517 12 203 4.8 20.9 0.00 0.00 0.00 38 1010.1
20260503171518 12 203 3.2 17.7 0.00 0.00 0.00 39 1010.2
20260503170518 11 180 3.2 16.1 0.00 0.00 0.00 39 1010.3
20260503150517 10 0.0 4.8 0.00 0.00 0.00 47 1011.9
20260503130517 6 0.0 0.0 0.00 0.00 0.00 58 1012.8
20260503110517 -1 0.0 0.0 0.00 0.00 0.00 87 1012.5
20260503081517 -2 0.0 0.0 0.00 0.00 0.00 87 1013.3
20260503080517 -2 0.0 0.0 0.00 0.00 0.00 87 1013.3
20260503072517 -2 0.0 0.0 0.00 0.00 0.00 87 1013.4
20260503071517 -2 0.0 0.0 0.00 0.00 0.00 87 1013.5
20260503070517 -1 0.0 0.0 0.00 0.00 0.00 87 1013.5
20260503054517 -1 0.0 0.0 0.00 0.00 0.00 86 1013.9
20260503053517 -1 0.0 0.0 0.00 0.00 0.00 85 1014.1
20260503052517 -1 0.0 0.0 0.00 0.00 0.00 85 1014.1
20260503051517 -1 0.0 0.0 0.00 0.00 0.00 85 1014.2
20260503050517 0 0.0 0.0 0.00 0.00 0.00 84 1014.2
20260503045517 0 0.0 0.0 0.00 0.00 0.00 84 1014.2
20260503044517 0 0.0 0.0 0.00 0.00 0.00 84 1014.3
20260503043517 0 0.0 0.0 0.00 0.00 0.00 83 1014.3
20260503042517 0 0.0 0.0 0.00 0.00 0.00 83 1014.4
20260503041517 0 0.0 0.0 0.00 0.00 0.00 82 1014.5
20260503040517 0 0.0 0.0 0.00 0.00 0.00 82 1014.4
20260503035517 0 0.0 0.0 0.00 0.00 0.00 82 1014.4
20260503034517 0 0.0 0.0 0.00 0.00 0.00 82 1014.5
20260503033517 0 0.0 0.0 0.00 0.00 0.00 81 1014.4
20260503032517 0 0.0 0.0 0.00 0.00 0.00 80 1014.4
20260503031517 1 0.0 0.0 0.00 0.00 0.00 79 1014.5
20260503030517 1 0.0 0.0 0.00 0.00 0.00 79 1014.4
20260503025517 1 0.0 0.0 0.00 0.00 0.00 77 1014.5
20260503024517 1 0.0 0.0 0.00 0.00 0.00 76 1014.5
20260503023517 2 0.0 0.0 0.00 0.00 0.00 76 1014.4
20260503022517 2 0.0 0.0 0.00 0.00 0.00 74 1014.5
20260503021517 2 0.0 0.0 0.00 0.00 0.00 73 1014.6
20260503020517 2 0.0 0.0 0.00 0.00 0.00 71 1014.4
20260503015517 2 0.0 0.0 0.00 0.00 0.00 70 1014.4
20260503014517 3 0.0 0.0 0.00 0.00 0.00 67 1014.3
20260503013517 3 0.0 0.0 0.00 0.00 0.00 66 1014.3
20260503012517 3 0.0 0.0 0.00 0.00 0.00 63 1014.4
20260503011517 4 0.0 0.0 0.00 0.00 0.00 63 1014.4
20260503010517 5 0.0 0.0 0.00 0.00 0.00 60 1014.3
20260503005517 5 0.0 0.0 0.00 0.00 0.00 60 1014.2
20260503004517 5 0.0 0.0 0.00 0.00 0.00 60 1014.2
20260503003517 5 0.0 0.0 0.00 0.00 0.00 58 1014.2
20260503002517 5 0.0 0.0 0.00 0.00 0.00 58 1014.0